Regional Weather Roundup
Issued by NWS Jackson, KY

Home | Current Version | Previous Version | Text Only | Print | Product List | Glossary Off
Versions: 1 2 3 4 5 6 7 8 9 10 11 12 13 14 15 16 17 18 19 20 21 22 23 24 25 26 27 28 29 30 31 32 33 34 35 36 37 38 39 40 41 42 43 44 45 46 47 48 49 50

000
ASUS43 KJKL 200005
RWRJKL

EAST KENTUCKY HOURLY WEATHER ROUNDUP
NATIONAL WEATHER SERVICE JACKSON KY
800 PM EDT TUE AUG 19 2014

NOTE: "FAIR" INDICATES FEW OR NO CLOUDS BELOW 12,000 FEET WITH
NO SIGNIFICANT WEATHER AND/OR OBSTRUCTIONS TO VISIBILITY.

* THESE REPORTS ARE NOT UNDER NWS QUALITY CONTROL AND MAY NOT
  REPORT WEATHER SUCH AS PRECIPITATION AND FOG.

KYZ079-080-083-085-087-088-110-112-115-119-120-200100
...EASTERN KENTUCKY...

CITY           SKY/WX    TMP DP  RH WIND       PRES   REMARKS
JACKSON        CLEAR     79  69  71 CALM      29.90R
6HR MIN TEMP:  79; 6HR MAX TEMP:  85;

LONDON         CLEAR     82  68  62 SW3       29.90S
6HR MIN TEMP:  81; 6HR MAX TEMP:  86;

SOMERSET*      CLEAR     79  68  69 CALM      29.90R
MONTICELLO*    CLEAR     80  73  79 CALM      29.90R
6HR MIN TEMP:  81; 6HR MAX TEMP:  87;

WILLIAMSBURG*  CLEAR     79  73  83 CALM      29.91R
MIDDLESBORO*   PTCLDY    79  70  75 W3        29.92R
6HR MIN TEMP:  79; 6HR MAX TEMP:  86;

HARLAN APT*    MOCLDY    75  68  78 MISG      29.92R
BLACK MTN*       N/A     68  64  88 CALM        N/A
PIKEVILLE APT* CLEAR     79  70  73 CALM      29.91R
BIG SANDY*     CLEAR     78  72  81 CALM      29.89S
MOREHEAD APT*  CLEAR     81  72  74 S3        29.88S
$$

KYZ035-036-041-042-044-050-067-078-099-200100
...CENTRAL KENTUCKY...

CITY           SKY/WX    TMP DP  RH WIND       PRES   REMARKS
MT STERLING*   CLEAR     81  70  69 SW5       29.87S
FLEMING/MASON* CLEAR     80  70  72 SW5       29.86R
DANVILLE*      CLEAR     79  70  73 CALM      29.88S
RICHMOND*      CLEAR     81  68  65 CALM      29.87S
LEXINGTON      PTCLDY    81  71  71 S5        29.86S
6HR MIN TEMP:  81; 6HR MAX TEMP:  87;

FRANKFORT      PTCLDY    81  69  67 S5        29.83F
6HR MIN TEMP:  81; 6HR MAX TEMP:  86;

$$

KYZ091>093-OHZ055-061-077-WVZ005-015-034-035-042-200100
...SOUTHERN OHIO/WEST VIRGINIA...

CITY           SKY/WX    TMP DP  RH WIND       PRES   REMARKS
COVINGTON      MOCLDY    82  66  58 W5        29.84R
COLUMBUS       PTCLDY    87  66  49 SW9       29.81R
DAYTON         MOCLDY    81  67  62 W7        29.84R
WILMINGTON     CLEAR     80  69  69 S3        29.83R
HUNTINGTON     CLEAR     79  72  79 SE3       29.85R
CHARLESTON     PTCLDY    80  70  71 SW5       29.87R
PINEVILLE*     CLEAR     74  74  98 MISG      29.98R FOG
BECKLEY        MOCLDY    75  67  76 CALM      29.96R
BLUEFIELD      CLEAR     74  66  76 CALM      30.00R
$$

VAZ002-007-008-TNZ017-027-036-066-071-200100
...SOUTHWEST VIRGINIA/EAST TENNESSEE...

CITY           SKY/WX    TMP DP  RH WIND       PRES   REMARKS
WISE*          PTCLDY    73  64  73 SW5       30.00R
JONESVILLE*      N/A     77  72  83 CALM      29.95R
ABINGDON*      CLEAR     73  72  95 CALM      29.95R
BRISTOL        PTCLDY    80  66  62 W6        29.92R
KNOXVILLE      MOCLDY    80  68  66 VRB5      29.90R THUNDER
OAK RIDGE      LGT RAIN  78  69  73 E3        29.93R
CROSSVILLE     CLEAR     76  69  79 SW3       29.96R
NASHVILLE      MOCLDY    85  72  65 SW6       29.87R HX  91
$$

...KEY TO REMARKS...
VSB - VISIBILITY IN MILES
WCI - WIND CHILL INDEX
HX  - HEAT INDEX

$$



USA.gov is the U.S. government's official web portal to all federal, state and local government web resources and services.